{"data":{"norad_id":45054,"epoch":"2026-05-24T20:40:12.902880Z","epoch_age_seconds":77312,"freshness":"FRESH","line1":"1 45054U 20006L   26144.86126045  .00039816  00000+0  12081-2 0  9995","line2":"2 45054  53.1587 286.6040 0002264 308.7242  51.3558 15.33742924348210","mean_motion":15.33742924,"eccentricity":0.0002264,"inclination_deg":53.1587,"raan_deg":286.604,"arg_perigee_deg":308.7242,"mean_anomaly_deg":51.3558,"bstar":0.0012081,"rev_number":34821,"period_min":93.887963717184,"perigee_km":463.10769720963,"apogee_km":466.20611429016,"semimajor_km":6842.7939057499,"source":"CELESTRAK","updated_at":"2026-05-25T13:38:16.377514Z"}}